FREGAT DEB, 46524

Orbit data source: Space-Track

FREGAT DEB, 46524 is space debris originally from a launch on Mon, 18 Jul 2011 UTC launched from the Tyuratam Missile And Space Complex (TTMTR). Debris objects in space refer to the collection of defunct objects orbiting the Earth. Examples of debris include non-operational satellites, rocket bodies, and fragments generated from explosions, collisions, or faulty payload assembly.

Loading next visibility...
FREGAT DEB details
Identifier
46524, 2011-037MC
Orbit
Active
Last TLE update9 hours ago
Origin
Flag of CISVVKO VKS (CIS)
ManufacturerLavochkin
MissionSpacecraft
Bus & MotorUnknown
MassUnknown
Launch date (UTC)
2011-07-18 (13 years ago)
Launch vehicleUnknown
Launch site
Tyuratam Missile And Space Complex (TTMTR)
Object type
Payload
Rocket body
Debris
Shape & HBRUnknown
Radar Cross SectionSmall (<0.1 m²)

Expand to show TLE details & history

TLE from 9 hours ago
0 FREGAT DEB
1 46524U 11037MC  24346.52321687 -.00000026  00000-0  90211-4 0  9992
2 46524  51.6309  39.0222 1835829 178.0223 182.9238 10.60233166166615
Epoch: 2024-12-11T12:33Z
Definitive object data (Epoch: 2024-12-11T12:33:25.937Z)
Latitude-0.00003°
Longitude129.94742°
Altitude3,980.296 km
Speed5.607 km/s
True Right ascension02h 36m 05s
True Declination0° 00' 00"
Sunlit
Object was in daylight at TLE epoch
Visualization TLE readout
Latitude36.11959°
Longitude164.21479°
Altitude3,214.888 km
Speed6.134 km/s
Apparent Right ascension06h 13m 25s
Apparent Declination7° 48' 34"
Sunlit
Object is in full shadow
Visualization observer readout
Local Sidereal Time20:25:02
Azimuth40.151° NE
Elevation-33.421°
Doppler factor1
Orbital elements
Apogee altitude3,981.718 km
Perigee altitude767.93 km
Semi-major axis8,752.961 km
Eccentricity0.1835829
Inclination51.6309°
RAAN39.0222°
Arg. of periapsis178.0223°
True anomaly182.05186°
Mean anomaly182.9238°
Eccentric anomaly182.47041°
Mean motion2.6504 °/min
BSTAR0.000090211
Orbital period135.83 mins
Loading maneuver chart data...
Loading historical data...
Loading historical data...
Loading historical data...
Loading historical data...
Loading historical data...
Loading historical data...
Loading historical data...

FREGAT DEB Visibility forecast

Observer location: undefined°, undefined

Span
Click to sort rows by Start time (UTC) header in descending order
Start Az.
Max El. time (UTC)
Max El. Az.
Max El.
End time (UTC)
End Az.
36 mins2024-12-12 04:22:05.499Z188.798° SSW2024-12-12 04:43:05.499Z125.764° SE35.7°2024-12-12 04:58:05.499Z60.465° ENE
34 mins2024-12-12 06:47:05.499Z233.247° WSW2024-12-12 07:08:05.499Z318.293° NNW44.819°2024-12-12 07:21:05.499Z53.49° ENE
25 mins2024-12-12 09:18:05.499Z275.738° WNW2024-12-12 09:34:05.499Z345.861° N37.528°2024-12-12 09:43:05.499Z60.294° ENE
17 mins2024-12-12 11:49:05.499Z304.616° NW2024-12-12 12:00:05.499Z24.837° NE39.574°2024-12-12 12:06:05.499Z95.775° ESE
12 mins2024-12-12 14:15:05.499Z298.494° NW2024-12-12 14:22:05.499Z233.621° WSW34.191°2024-12-12 14:27:05.499Z165.188° S
|